weather.gov     
National Weather Service

Regional Weather Roundup
NWS Homepage
This page is being discontinued on March 12, 2014.
The same data is available at this site. Please update your bookmarks.
Thank you, and we apologize for the inconvenience.
Please send an email to SR-SRH.Webmaster@noaa.gov with any concerns.


Current Version
Previous Version:    01  02  03  04  05  06  07  08  09  10  11  12  13  14  15  16  17  18  19  20  21  22  23  24  25  26  27  28  
[Printable]
014
ASUS41 KPHI 301610
RWRPHI

REGIONAL WEATHER ROUNDUP
NATIONAL WEATHER SERVICE MOUNT HOLLY NJ
1200 PM EDT TUE SEP 30 2014

NOTE:  "FAIR" INDICATES FEW OR NO CLOUDS BELOW 12,000 FEET WITH NO
SIGNIFICANT WEATHER AND/OR OBSTRUCTIONS TO VISIBILITY.

 * = STATION DOES NOT REPORT PRECIPITATION (E.G. RAIN, SNOW, ETC.)
        OR FOG.

NJZ015>026-301700-
SOUTHERN NEW JERSEY

CITY           SKY/WX    TMP DP  RH WIND       PRES   REMARKS
POMONA         SUNNY     74  53  48 E6        29.94S
RIO GRANDE*    SUNNY     72  54  53 E7        29.94F
MILLVILLE      MOSUNNY   72  58  61 SE6       29.93F
WRIGHTSTOWN    MOSUNNY   73  56  54 E8        29.92F
MOUNT HOLLY    SUNNY     72  57  59 SE6       29.94S
TRENTON        SUNNY     73  53  49 S5        29.94S

$$
NJZ001>014-301700-
NORTHERN NEW JERSEY

CITY           SKY/WX    TMP DP  RH WIND       PRES   REMARKS
SUSSEX         MOSUNNY   74  55  51 CALM      29.94F
ANDOVER*         N/A     74  49  41 VRB5      29.95F
MORRISTOWN     PTSUNNY   73  52  46 SE7       29.95F
NEWARK         PTSUNNY   71  57  61 NE6       29.95S
TETERBORO      CLOUDY    68  59  73 E6        29.95R
CALDWELL       CLOUDY    69  59  70 E8        29.95F
SOMERVILLE     SUNNY     75  52  44 CALM      29.92F
ALLAIRE*       PTSUNNY   70  54  56 NE7       29.95S
TOMS RIVER*    PTSUNNY   70  55  60 CALM      29.95S

$$
PAZ043-044-047-054-055-060>062-066>071-301700-
EASTERN PENNSYLVANIA

CITY           SKY/WX    TMP DP  RH WIND       PRES   REMARKS
PHILADELPHIA   MOSUNNY   76  57  51 VRB5      29.94S
NORTH PHILA    SUNNY     74  53  48 VRB3      29.95S
BLUE BELL      SUNNY     77  55  47 NE3       29.93S
DOYLESTOWN     MOSUNNY   71  52  50 NE3       29.94S
QUAKERTOWN*    MOSUNNY   72  59  64 CALM      29.95F
POTTSTOWN      CLOUDY    73  62  68 CALM      29.95S
LANCASTER      CLOUDY    73  60  63 E6        29.93F
COATESVILLE    PTSUNNY   72  57  60 E3        29.95S
READING        CLOUDY    73  57  57 CALM      29.93S
ALLENTOWN      CLOUDY    71  58  63 CALM      29.95S
MOUNT POCONO   SUNNY     67  55  65 S7        29.97F
HAZLETON       CLOUDY    64  59  82 E6        29.99S HAZE
WILKES BARRE   MOSUNNY   72  58  61 VRB5      29.93F

$$
DEZALL-MDZ008-012-015-019-020-301700-
DELAWARE AND EASTERN MARYLAND

CITY           SKY/WX    TMP DP  RH WIND       PRES   REMARKS
WILMINGTON     SUNNY     72  60  66 S5        29.94S
DOVER          SUNNY     72  61  68 E8        29.92S
GEORGETOWN     MOSUNNY   73  60  63 MISG      29.93F
EASTON         PTSUNNY   75  63  64 S5        29.96S
PATUXENT       MOSUNNY   72  63  73 CALM      29.92F
OCEAN CITY     SUNNY     73  61  65 VRB7      29.93S
WALLOPS ISLAND SUNNY     74  64  71 NE10      29.92F
CAMBRIDGE      MOSUNNY   75  63  64 E5        29.92S
SALISBURY      MOSUNNY   76  60  57 SE6       29.92F

$$
PAZ001-021-NYZ056-072-MDZ011-DCZ001-301700-
OTHER NEARBY LOCATIONS

CITY           SKY/WX    TMP DP  RH WIND       PRES   REMARKS
HARRISBURG     PTSUNNY   68  60  75 CALM      29.92F
STATE COLLEGE  MOSUNNY   68  59  73 CALM      29.92F
WILLIAMSPORT   CLOUDY    67  59  75 SE3       29.91S
BINGHAMTON     MOSUNNY   69  60  73 VRB6      29.94S
NEW YORK CITY  CLOUDY    68  57  68 NE7       29.99R
BALTIMORE      MOSUNNY   70  61  73 S6        29.92F
WASHINGTON DC  CLOUDY    70  61  73 S6        29.94S

$$




U.S. Dept. of Commerce
NOAA National Weather Service
1325 East West Highway
Silver Spring, MD 20910
E-mail: w-nws.webmaster@noaa.gov
Page last modified: May 16, 2007
NATIONAL WEATHER SERVICE: for Safety, for Work, for Fun - FOR LIFE